Regional Weather Roundup
Issued by NWS

Home | Current Version | Previous Version | Text Only | Print | Product List | Glossary Off
Versions: 1 2 3 4 5 6 7 8 9 10 11 12 13 14 15 16 17 18 19 20 21 22 23 24 25 26 27 28 29 30 31 32 33 34 35 36 37 38 39 40 41 42 43 44 45 46 47 48 49 50

000
ASUS45 KSLC 242210
RWRUT

UTAH REGIONAL WEATHER ROUNDUP
NATIONAL WEATHER SERVICE SALT LAKE CITY UT
300 PM MST SAT JAN 24 2015

UTZ001>011-023>025-242300-

NORTHERN UTAH

CITY           SKY/WX    TMP DP  RH WIND       PRES   REMARKS
BRIGHAM CITY   CLOUDY    35  25  66 NW3       30.48R
HILL AFB       CLOUDY    37  16  43 VRB1      30.45S
LOGAN          CLOUDY    32  24  72 CALM      30.46S
OGDEN          CLOUDY    38  22  52 CALM      30.45S
PROVO AIRPORT  PTSUNNY   34  19  55 W5        30.44  WCI  30
SALT LAKE CITY CLOUDY    39  24  55 N7        30.45S WCI  34
VERNAL         CLOUDY    36  13  38 CALM      30.32F
WENDOVER       SUNNY     39  27  60 E5        30.42F
HEBER CITY     SUNNY     34  21  60 CALM      30.39F
WEST JORDAN    CLOUDY    39  21  48 CALM      30.44S

$$

UTZ012>022-026-027-242300-

SOUTHERN/CENTRAL UTAH

CITY           SKY/WX    TMP DP  RH WIND       PRES   REMARKS
BLANDING       SUNNY     46  14  28 SW6       30.34S
BRYCE CANYON   SUNNY     45  20  36 W10       30.33F
CEDAR CITY     SUNNY     47  20  34 NE6       30.35F
DELTA          SUNNY     42  22  45 CALM      30.43S
MILFORD        SUNNY     45  24  43 N15       30.38F
MOAB/CYNLANDS  SUNNY     43  17  35 VRB5      30.32R
PRICE          SUNNY     42  16  34 S5        30.29F
ST GEORGE      CLEAR     57  21  24 W3        30.29F
KANAB          SUNNY     54  19  26 E7        30.30F

$$

REGIONAL REPORTS     COLORADO/ARIZONA

CITY           SKY/WX    TMP DP  RH WIND       PRES   REMARKS
CRAIG, CO      CLOUDY    27  16  63 SW6       30.29F WCI  20
GRAND JUNCTION CLOUDY    40   9  28 CALM      30.34R
RIFLE          CLOUDY    36  11  35 SE3       30.33F
MONTROSE       PTSUNNY   39  10  30 NW8       30.32R WCI  33
CORTEZ         SUNNY     43  18  36 VRB3      30.26F
PAGE, AZ       NOT AVBL
GRAND CANYON   SUNNY     47  10  22 E13       30.31F
KINGMAN        SUNNY     62  15  16 N18       30.21F
FLAGSTAFF      SUNNY     47  10  22 E15G22    30.28F

$$

REGIONAL REPORTS    NEVADA/IDAHO/WYOMING

CITY           SKY/WX    TMP DP  RH WIND       PRES   REMARKS
LAS VEGAS, NV  SUNNY     66  20  17 E8        30.20F
ELY            SUNNY     50  20  30 N18       30.40F
ELKO           SUNNY     50  28  42 SW8       30.42F
POCATELLO, ID  CLOUDY    31  29  92 NE6       30.43R WCI  25
BURLEY         CLOUDY    39  31  72 CALM      30.40S
EVANSTON, WY   CLOUDY    34  26  72 W12       30.39R WCI  25
ROCK SPRINGS   CLOUDY    37  23  56 W35       30.25R WCI  24
KEMMERER       CLOUDY    30  27  86 W21       30.35R WCI  17

$$


USA.gov is the U.S. government's official web portal to all federal, state and local government web resources and services.